Regional Weather Roundup
Issued by NWS Midland/Odessa, TX

Skip options and go directly to product.
Home | Oldest Version | Previous Version | Current Version | All | Graphics & Text | Save Text | Print | Product List | Glossary On

Skip product version selection by date and time.   
915
ASUS44 KMAF 020710
RWRMAF
MIDLAND AREA WEATHER ROUNDUP
NATIONAL WEATHER SERVICE MIDLAND TX
100 AM CST MON MAR 02 2015

...IN SOUTHWEST TEXAS AND SOUTHEAST NEW MEXICO...

CITY           SKY/WX    TMP DP  RH WIND       PRES   REMARKS
ALPINE         CLOUDY    39  39  98 E3        30.31S VSB 1/2
ANDREWS        CLOUDY    31  31 100 NE9       30.33S FOG     WCI  23
ARTESIA        CLOUDY    36  36 100 SE10      30.31F FOG     WCI  28
BIG SPRING     CLOUDY    33  32  94 NE9       30.37S WCI  26
CARLSBAD       CLOUDY    38  33  82 E9        30.30F WCI  31
DRYDEN           N/A     42  41  96 NE9       30.27S WCI  37
FORT STOCKTON  FOG       35  35 100 NE12      30.30S VSB 1/2 WCI  27
GUAD PASS      NOT AVBL
HOBBS          CLOUDY    30  30 100 NE9       30.34R FOG     WCI  22
MARFA          CLOUDY    39  34  81 NE5       30.23S WCI  36
MIDLAND AIRPK  CLOUDY    33  33 100 NE8       30.35R FOG     WCI  26
MIDLAND INTL   CLOUDY    32  31  96 NE12      30.34R FOG     WCI  23
ODESSA         CLOUDY    32  30  92 NE12      30.33S FOG     WCI  23
PECOS          CLOUDY    37  36  95 E8        30.33S FOG     WCI  31
PRESIDIO       FAIR      58  38  46 NE10      30.12S
SEMINOLE       FOG       31  31 100 CALM      30.34F VSB 3/4
SNYDER         CLOUDY    31  31  99 NE6       30.35F WCI  25
WINK           CLOUDY    35  31  85 NE8       30.33R WCI  29
$$
...OTHER STATIONS IN TEXAS...

CITY           SKY/WX    TMP DP  RH WIND       PRES   REMARKS
ABILENE        CLOUDY    32  31  96 NE8       30.38F FOG     WCI  25
AMARILLO       CLOUDY    29  25  85 NE5       30.36F WCI  24
AUSTIN         CLOUDY    39  39 100 N13       30.32F FOG     WCI  31
BROWNSVILLE    CLOUDY    55  54  96 N9        30.23S FOG
CORPUS CHRISTI LGT RAIN  49  47  93 N9        30.25F FOG
DALLAS FTW     CLOUDY    36  33  89 N15       30.38F WCI  27
DEL RIO        CLOUDY    47  46  97 N5        30.28F FOG
EL PASO        CLOUDY    59  30  33 CALM      30.08F
HOUSTON INT    FOG       49  48  97 N10       30.26F VSB 1/4
LUBBOCK        CLOUDY    30  28  92 NE7       30.36R WCI  23
SAN ANGELO     CLOUDY    34  32  92 NE9       30.34F WCI  27
SAN ANTONIO    DRIZZLE   43  41  93 NE7       30.29F FOG     WCI  39
WACO           CLOUDY    37  36  96 N10       30.37F FOG     WCI  30
WICHITA FALLS  NOT AVBL
$$
...OTHER LOCATIONS IN NEW MEXICO...

CITY           SKY/WX    TMP DP  RH WIND       PRES   REMARKS
ALAMAGORDO     MOCLDY    59  25  27 S10       30.08F
ALBUQUERQUE    CLOUDY    49  28  44 CALM      30.10S
CANNON AFB     FRZ DRZL  28  28 100 E8        30.32R VSB 1   WCI  20
CLOVIS         CLOUDY    28  28 100 E6        30.32F VSB 1   WCI  22
HOLLOMAN AFB   MOCLDY    59  28  30 N16       30.07R
ROSWELL        CLOUDY    37  34  89 E7        30.29F FOG     WCI  32
RUIDOSO        FOG       32  32 100 SE8       30.25F VSB<1/4 WCI  25
SANTA FE       PTCLDY    33  25  72 SE15G28   30.17S WCI  23
TRUTH OR CONSE CLOUDY    56  24  29 S10       30.07F
TUCUMCARI      CLOUDY    29  27  92 E7        30.33F FOG     WCI  22
$$

USA.gov is the U.S. government's official web portal to all federal, state and local government web resources and services.